TimePST,TemperatureF,Dew PointF,Humidity,Sea Level PressureIn,VisibilityMPH,Wind Direction,Wind SpeedMPH,Gust SpeedMPH,PrecipitationIn,Events,Conditions,WindDirDegrees,DateUTC
12:15 AM,39.2,35.6,87,29.92,10.0,Calm,Calm,-,N/A,,Overcast,0,2012-11-17 08:15:00
12:35 AM,39.2,35.6,87,29.91,10.0,Calm,Calm,-,N/A,,Overcast,0,2012-11-17 08:35:00
12:55 AM,39.2,35.6,87,29.90,10.0,Calm,Calm,-,N/A,,Overcast,0,2012-11-17 08:55:00
1:15 AM,39.2,35.6,87,29.90,10.0,NE,3.5,-,N/A,,Overcast,50,2012-11-17 09:15:00
1:35 AM,39.2,35.6,87,29.89,10.0,Calm,Calm,-,N/A,,Mostly Cloudy,0,2012-11-17 09:35:00
1:55 AM,41.0,35.6,81,29.89,10.0,Calm,Calm,-,N/A,,Overcast,0,2012-11-17 09:55:00
2:15 AM,41.0,35.6,81,29.88,10.0,Calm,Calm,-,N/A,,Overcast,0,2012-11-17 10:15:00
2:35 AM,39.2,35.6,87,29.88,10.0,SSE,6.9,-,N/A,,Overcast,150,2012-11-17 10:35:00
2:55 AM,39.2,37.4,93,29.87,10.0,South,8.1,-,N/A,,Overcast,170,2012-11-17 10:55:00
3:15 AM,39.2,37.4,93,29.86,10.0,South,8.1,-,N/A,,Overcast,180,2012-11-17 11:15:00
3:35 AM,39.2,37.4,93,29.86,10.0,SSE,6.9,-,N/A,,Overcast,150,2012-11-17 11:35:00
3:55 AM,39.2,37.4,93,29.85,10.0,South,4.6,-,N/A,,Overcast,170,2012-11-17 11:55:00
4:15 AM,39.2,37.4,93,29.85,10.0,South,11.5,-,N/A,,Overcast,180,2012-11-17 12:15:00
4:35 AM,41.0,39.2,93,29.84,10.0,South,10.4,-,N/A,,Overcast,180,2012-11-17 12:35:00
4:55 AM,39.2,37.4,93,29.84,10.0,South,9.2,-,N/A,,Overcast,180,2012-11-17 12:55:00
5:15 AM,39.2,37.4,93,29.84,10.0,South,10.4,-,N/A,,Overcast,170,2012-11-17 13:15:00
5:35 AM,39.2,37.4,93,29.83,10.0,SSE,12.7,-,N/A,,Overcast,160,2012-11-17 13:35:00
5:55 AM,39.2,37.4,93,29.82,10.0,SSE,11.5,-,N/A,,Overcast,160,2012-11-17 13:55:00
6:15 AM,39.2,37.4,93,29.82,8.0,South,5.8,-,N/A,,Overcast,180,2012-11-17 14:15:00
6:35 AM,39.2,37.4,93,29.81,8.0,SSE,6.9,-,N/A,,Overcast,160,2012-11-17 14:35:00
6:55 AM,39.2,37.4,93,29.81,10.0,SSE,3.5,-,0.01,,Mostly Cloudy,160,2012-11-17 14:55:00
7:15 AM,39.2,37.4,93,29.80,10.0,SE,3.5,-,N/A,,Overcast,140,2012-11-17 15:15:00
7:35 AM,39.2,37.4,93,29.80,10.0,Calm,Calm,-,N/A,,Overcast,0,2012-11-17 15:35:00
7:55 AM,39.2,37.4,93,29.80,10.0,South,3.5,-,N/A,,Overcast,170,2012-11-17 15:55:00
8:15 AM,41.0,39.2,93,29.80,10.0,SSW,9.2,-,N/A,,Overcast,210,2012-11-17 16:15:00
8:35 AM,41.0,39.2,93,29.80,10.0,SSW,9.2,-,N/A,,Overcast,200,2012-11-17 16:35:00
8:55 AM,41.0,39.2,93,29.80,10.0,South,5.8,-,N/A,,Overcast,180,2012-11-17 16:55:00
9:15 AM,42.8,39.2,87,29.80,10.0,South,8.1,-,N/A,,Overcast,180,2012-11-17 17:15:00
9:35 AM,42.8,39.2,87,29.79,10.0,South,11.5,-,N/A,,Overcast,180,2012-11-17 17:35:00
9:55 AM,42.8,39.2,87,29.79,10.0,South,11.5,-,N/A,,Overcast,190,2012-11-17 17:55:00
10:15 AM,42.8,41.0,93,29.79,10.0,South,13.8,-,N/A,,Overcast,190,2012-11-17 18:15:00
10:35 AM,44.6,41.0,87,29.79,10.0,SSW,16.1,20.7,N/A,,Overcast,200,2012-11-17 18:35:00
10:55 AM,44.6,41.0,87,29.78,10.0,SSW,18.4,24.2,N/A,,Overcast,200,2012-11-17 18:55:00
11:15 AM,44.6,41.0,87,29.78,10.0,South,17.3,23.0,N/A,,Overcast,190,2012-11-17 19:15:00
11:35 AM,44.6,41.0,87,29.76,10.0,South,18.4,-,N/A,,Overcast,180,2012-11-17 19:35:00
11:55 AM,46.4,41.0,81,29.75,10.0,South,17.3,28.8,N/A,,Overcast,180,2012-11-17 19:55:00
12:15 PM,44.6,39.2,81,29.75,10.0,South,20.7,27.6,N/A,,Mostly Cloudy,180,2012-11-17 20:15:00
12:35 PM,44.6,39.2,81,29.74,10.0,South,17.3,24.2,N/A,,Overcast,180,2012-11-17 20:35:00
12:55 PM,46.4,39.2,76,29.73,10.0,South,20.7,26.5,N/A,,Overcast,170,2012-11-17 20:55:00
1:15 PM,44.6,39.2,81,29.72,10.0,South,20.7,27.6,N/A,,Overcast,170,2012-11-17 21:15:00
1:35 PM,44.6,39.2,81,29.72,10.0,South,20.7,27.6,N/A,,Overcast,170,2012-11-17 21:35:00
1:55 PM,44.6,39.2,81,29.72,10.0,South,20.7,33.4,N/A,,Overcast,180,2012-11-17 21:55:00
2:15 PM,44.6,39.2,81,29.72,9.0,South,19.6,28.8,N/A,,Overcast,180,2012-11-17 22:15:00
2:35 PM,44.6,41.0,87,29.72,10.0,South,16.1,-,N/A,,Overcast,190,2012-11-17 22:35:00
2:55 PM,44.6,39.2,81,29.72,10.0,South,17.3,25.3,N/A,,Mostly Cloudy,180,2012-11-17 22:55:00
3:15 PM,44.6,39.2,81,29.72,10.0,SSW,12.7,-,N/A,,Mostly Cloudy,200,2012-11-17 23:15:00
3:35 PM,44.6,39.2,81,29.71,10.0,South,15.0,-,N/A,,Mostly Cloudy,190,2012-11-17 23:35:00
3:55 PM,44.6,41.0,87,29.71,10.0,South,12.7,-,N/A,,Overcast,180,2012-11-17 23:55:00
4:15 PM,44.6,39.2,81,29.72,10.0,SSW,12.7,-,N/A,,Mostly Cloudy,210,2012-11-18 00:15:00
4:35 PM,42.8,39.2,87,29.71,10.0,SSW,10.4,-,N/A,,Mostly Cloudy,200,2012-11-18 00:35:00
4:55 PM,42.8,39.2,87,29.70,10.0,SSW,10.4,-,N/A,,Mostly Cloudy,200,2012-11-18 00:55:00
5:15 PM,44.6,39.2,81,29.68,10.0,South,12.7,-,N/A,,Overcast,180,2012-11-18 01:15:00
5:35 PM,44.6,39.2,81,29.68,10.0,South,12.7,-,N/A,,Overcast,170,2012-11-18 01:35:00
5:55 PM,44.6,39.2,81,29.68,10.0,South,15.0,20.7,N/A,,Overcast,180,2012-11-18 01:55:00
6:15 PM,42.8,39.2,87,29.70,10.0,South,25.3,31.1,N/A,,Overcast,190,2012-11-18 02:15:00
6:35 PM,35.6,30.2,81,29.75,6.0,WSW,16.1,31.1,0.07,,Overcast,250,2012-11-18 02:35:00
6:55 PM,33.8,32.0,93,29.76,3.0,SW,10.4,-,0.11,,Overcast,230,2012-11-18 02:55:00
7:15 PM,33.8,32.0,93,29.77,10.0,SSW,4.6,-,0.01,,Overcast,200,2012-11-18 03:15:00
7:35 PM,33.8,32.0,93,29.79,5.0,WSW,10.4,17.3,0.01,,Overcast,250,2012-11-18 03:35:00
7:55 PM,33.8,32.0,93,29.81,3.0,SW,8.1,-,0.02,,Overcast,230,2012-11-18 03:55:00
8:15 PM,33.8,30.2,87,29.82,1.2,SSW,4.6,-,0.05,,Overcast,200,2012-11-18 04:15:00
8:35 PM,33.8,32.0,93,29.83,4.0,WSW,6.9,-,0.06,,Overcast,240,2012-11-18 04:35:00
8:55 PM,33.8,30.2,87,29.84,10.0,SW,8.1,-,0.06,,Overcast,230,2012-11-18 04:55:00
9:15 PM,33.8,30.2,87,29.85,10.0,South,5.8,-,N/A,,Overcast,180,2012-11-18 05:15:00
9:35 PM,33.8,30.2,87,29.85,10.0,SW,10.4,-,N/A,,Overcast,220,2012-11-18 05:35:00
9:55 PM,33.8,30.2,87,29.87,10.0,South,8.1,-,N/A,,Overcast,170,2012-11-18 05:55:00
10:15 PM,33.8,30.2,87,29.88,10.0,SSW,6.9,-,N/A,,Overcast,210,2012-11-18 06:15:00
10:35 PM,33.8,30.2,87,29.89,10.0,SSW,10.4,-,N/A,,Overcast,200,2012-11-18 06:35:00
10:55 PM,32.0,30.2,93,29.88,10.0,South,4.6,-,N/A,,Mostly Cloudy,190,2012-11-18 06:55:00
11:15 PM,32.0,28.4,87,29.90,10.0,South,8.1,-,N/A,,Mostly Cloudy,190,2012-11-18 07:15:00
11:35 PM,30.2,28.4,93,29.92,10.0,South,5.8,-,N/A,,Scattered Clouds,190,2012-11-18 07:35:00
11:55 PM,30.2,26.6,86,29.92,10.0,South,4.6,-,N/A,,Scattered Clouds,190,2012-11-18 07:55:00